[[{"header":{"parameterUnit":"m.s-1","parameterCategory":1,"la1":30.2991,"la2":30.254,"lo1":-89.0895,"lo2":-89.0444,"dy":0.0017,"dx":0.0017,"nx":28,"ny":28,"refTime":"2024-08-10T15:00:00:Z","depth":0,"parameterNumber":2,"parameterNumberName":"U-component_of_WINDS"},"data":[0,0,0,0,0,0,0,0,0,0,0,0,0,0,0,0,0,0,0,0,0,0,0,0,0,0,0,0,0,0,0,0,0,0,0,0,0,0,0,0,0,0,0,0,0,0,0,0,0,0,0,0,0,0,0,0,0,0,0.2807,0.2808,0,0.2895,0.2896,0.2897,0.3018,0.302,0.3022,0.3024,0.3114,0.3114,0.3115,0,0,0,0,0,0,0,0,0,0,0,0,0,0.2742,0.2743,0.2807,0.2808,0.2809,0.2895,0.2896,0.2898,0.3017,0.302,0.3022,0.3024,0.3114,0.3114,0.3115,0,0,0,0,0,0,0,0,0,0,0,0,0,0.2794,0.2743,0.2807,0.2879,0.2887,0.2895,0.2896,0.2898,0.3017,0.302,0.3023,0.3026,0.3113,0.3114,0.3115,0.3059,0,0,0.3117,0.3118,0,0,0,0,0,0,0,0,0.2791,0.2797,0.2868,0.2874,0.2883,0.2949,0.2907,0.2952,0.3016,0.2967,0.3024,0.3027,0.3056,0.3062,0.3072,0.3063,0.3067,0.3117,0.3118,0.3118,0.3118,0,0,0,0,0,0,0,0.2787,0.2793,0.2842,0.2868,0.2878,0.2907,0.2918,0.2916,0.2994,0.2972,0.2981,0.299,0.3061,0.3071,0.3075,0.3069,0.3117,0.3118,0.3119,0.3119,0.3019,0.3016,0,0,0,0,0,0,0.2773,0.279,0.2839,0.2845,0.2843,0.2906,0.2918,0.2924,0.2994,0.3008,0.2987,0.2995,0.3068,0.3074,0.3079,0.3018,0.3118,0.3119,0.3119,0.3022,0.3018,0.3015,0,0,0,0,0,0,0.2771,0.2776,0.2836,0.282,0.283,0.2904,0.291,0.2924,0.2935,0.3006,0.302,0.2983,0.3071,0.3077,0.3063,0.3023,0.3119,0.312,0.3026,0.3021,0.3017,0.2896,0,0,0,0,0,0,0.2769,0.2775,0.2754,0.2818,0.283,0.2818,0.2908,0.2924,0.2936,0.2947,0.3005,0.3018,0.3074,0.3061,0.3064,0.3025,0.3121,0.303,0.3024,0.3018,0.2903,0.2887,0.2873,0,0,0,0,0,0.2766,0.2717,0.2753,0.2758,0.2806,0.2816,0.2822,0.2887,0.2932,0.2912,0.2958,0.3016,0.3027,0.3059,0.3063,0.3024,0.3033,0.3025,0.3019,0.291,0.289,0.2874,0,0,0,0,0,0,0.2646,0.2727,0.2767,0.2737,0.2769,0.2836,0.2813,0.2864,0.2884,0.2894,0.2974,0.2986,0.2961,0.2992,0.3026,0.2974,0.3038,0.3032,0.2955,0.2937,0.2922,0.2915,0.3121,0,0,0,0,0,0.2616,0.2618,0.2688,0.2655,0.2668,0.2737,0.2744,0.2792,0.2828,0.2841,0.2886,0.2919,0.293,0.2935,0.2949,0.2909,0.2923,0.2884,0.2869,0.2856,0.2849,0.283,0.2813,0.2992,0.2992,0.2992,0,0,0.2555,0.2599,0.2595,0.2632,0.2662,0.2661,0.2748,0.2744,0.2744,0.2841,0.283,0.2864,0.2905,0.2878,0.2868,0.2902,0.2803,0.2847,0.2837,0.2837,0.2821,0.2804,0.2789,0.2987,0.2988,0.2989,0,0,0.2442,0.2475,0.2451,0.2479,0.2524,0.257,0.2564,0.2624,0.265,0.264,0.2712,0.2714,0.2731,0.2758,0.2773,0.267,0.2725,0.2673,0.2594,0.2574,0.256,0.2548,0.2511,0.2496,0.2666,0.2665,0.2665,0,0.2359,0.2362,0.2432,0.2424,0.2438,0.2525,0.2501,0.2525,0.2571,0.2579,0.2617,0.264,0.2674,0.2654,0.2628,0.2638,0.2634,0.2666,0.2556,0.2545,0.2535,0.25,0.2486,0.2659,0.266,0.266,0.2661,0,0.2258,0.2258,0.2233,0.2276,0.2287,0.2271,0.2339,0.2342,0.2388,0.243,0.2419,0.2463,0.2487,0.2486,0.2532,0.2472,0.2492,0.2542,0.2608,0.251,0.2479,0.2466,0.2649,0.2652,0.2654,0.2655,0,0,0.2072,0.2153,0.2143,0.2163,0.2218,0.222,0.2208,0.2231,0.2232,0.2261,0.2252,0.2265,0.2311,0.2329,0.2378,0.2361,0.2275,0.2413,0.2415,0.2385,0.2212,0.2173,0.2157,0.2312,0.231,0.2308,0.2208,0,0.1969,0.1952,0.2015,0.1982,0.1983,0.2066,0.2056,0.2088,0.2127,0.2134,0.2178,0.2184,0.2246,0.2257,0.2243,0.2288,0.2242,0.2297,0.2304,0.2304,0.2291,0.2141,0.21,0.2004,0.2197,0.2195,0.2193,0,0.1847,0.1869,0.1836,0.1893,0.1896,0.1885,0.1911,0.1917,0.1955,0.1985,0.2004,0.2061,0.2053,0.2117,0.2106,0.2142,0.2149,0.2172,0.217,0.2172,0.2242,0.2139,0.1975,0.196,0.2175,0.2176,0.2178,0,0.1713,0.1735,0.1718,0.1733,0.1799,0.1789,0.1817,0.1858,0.1868,0.1892,0.1899,0.1921,0.1932,0.1948,0.2009,0.205,0.1991,0.206,0.2015,0.2013,0.1999,0.1999,0.1833,0.2004,0.2004,0.2004,0.2005,0,0.1592,0.1568,0.1659,0.1649,0.1624,0.1697,0.1671,0.1707,0.1743,0.1741,0.1814,0.181,0.1892,0.1897,0.1945,0.1928,0.1933,0.1957,0.1969,0.195,0.1946,0.1955,0.1963,0.2001,0.2001,0.2002,0.2003,0,0.1439,0.1499,0.1486,0.1549,0.1565,0.1544,0.1599,0.1591,0.1635,0.1631,0.1634,0.1703,0.1713,0.1775,0.1799,0.1832,0.1798,0.1824,0.1784,0.1793,0.1744,0.1747,0.1577,0.1558,0.1741,0.1739,0.1738,0,0.1357,0.1341,0.1402,0.1406,0.143,0.1435,0.1445,0.1516,0.1524,0.1567,0.1554,0.157,0.1586,0.1598,0.165,0.1669,0.1696,0.1635,0.1699,0.1679,0.1694,0.1694,0.1692,0.1621,0.1618,0.1617,0.1615,0,0.1205,0.1235,0.1248,0.127,0.1281,0.1302,0.1328,0.1327,0.1406,0.1411,0.1422,0.1434,0.1459,0.1473,0.1501,0.1529,0.1584,0.1594,0.1585,0.1564,0.1541,0.1552,0.1746,0.1598,0.16,0.1601,0.1602,0.1602,0.1085,0.1074,0.1116,0.1127,0.1154,0.1176,0.1172,0.1215,0.1226,0.1251,0.1293,0.1297,0.1336,0.1379,0.1403,0.1407,0.144,0.1426,0.1423,0.1418,0.1407,0.1541,0.1413,0.1413,0.1414,0.1414,0.1415,0,0.0936,0.0967,0.0977,0.101,0.1019,0.1071,0.1102,0.1106,0.1109,0.1141,0.1155,0.1167,0.1182,0.1235,0.1255,0.1248,0.1274,0.1251,0.1252,0.1257,0.1377,0.1383,0.1229,0.1229,0.1229,0.1229,0.123,0.123,0.086,0.0844,0.0879,0.0878,0.0909,0.0914,0.0927,0.0948,0.0974,0.0984,0.0996,0.1031,0.1071,0.1094,0.111,0.1125,0.1128,0.1096,0.112,0.1231,0.1249,0.1266,0.1272,0.1097,0.1096,0.0999,0.0998,0.0998]},{"header":{"parameterUnit":"m.s-1","parameterCategory":1,"la1":30.2991,"la2":30.254,"lo1":-89.0895,"lo2":-89.0444,"dy":0.0017,"dx":0.0017,"nx":28,"ny":28,"refTime":"2024-08-10T15:00:00:Z","depth":0,"parameterNumber":3,"parameterNumberName":"V-component_of_WINDS"},"data":[0,0,0,0,0,0,0,0,0,0,0,0,0,0,0,0,0,0,0,0,0,0,0,0,0,0,0,0,0,0,0,0,0,0,0,0,0,0,0,0,0,0,0,0,0,0,0,0,0,0,0,0,0,0,0,0,0,0,0.5644,0.5644,0,0.5639,0.5639,0.5639,0.5636,0.5636,0.5636,0.5636,0.5631,0.563,0.563,0,0,0,0,0,0,0,0,0,0,0,0,0,0.565,0.565,0.5644,0.5644,0.5644,0.5639,0.5639,0.5639,0.5636,0.5636,0.5636,0.5636,0.5631,0.563,0.563,0,0,0,0,0,0,0,0,0,0,0,0,0,0.5647,0.565,0.5644,0.5642,0.5642,0.5639,0.5639,0.5639,0.5636,0.5636,0.5636,0.5636,0.5631,0.563,0.563,0.5629,0,0,0.563,0.563,0,0,0,0,0,0,0,0,0.5647,0.5646,0.5642,0.5642,0.5642,0.5638,0.5639,0.5635,0.5636,0.5638,0.5636,0.5636,0.5633,0.5633,0.5632,0.5629,0.5628,0.563,0.5629,0.5629,0.5629,0,0,0,0,0,0,0,0.5647,0.5646,0.5642,0.5642,0.5642,0.5641,0.564,0.5638,0.5636,0.5638,0.5638,0.5637,0.5633,0.5632,0.5632,0.5628,0.563,0.5629,0.5629,0.5629,0.5622,0.5622,0,0,0,0,0,0,0.5648,0.5647,0.5642,0.5642,0.5644,0.5641,0.564,0.5639,0.5636,0.5635,0.5637,0.5637,0.5632,0.5632,0.5631,0.5629,0.5629,0.5629,0.5629,0.5622,0.5622,0.5622,0,0,0,0,0,0,0.5648,0.5647,0.5642,0.5644,0.5643,0.5641,0.564,0.5639,0.5638,0.5635,0.5635,0.5637,0.5632,0.5632,0.5629,0.5628,0.5629,0.5629,0.5623,0.5622,0.5622,0.5624,0,0,0,0,0,0,0.5648,0.5647,0.5647,0.5644,0.5643,0.5641,0.564,0.5639,0.5638,0.5638,0.5635,0.5634,0.5632,0.563,0.5629,0.5628,0.5629,0.5623,0.5622,0.5622,0.5624,0.5624,0.5624,0,0,0,0,0,0.5648,0.5648,0.5647,0.5647,0.5643,0.5641,0.564,0.5638,0.5638,0.5637,0.5635,0.5634,0.5629,0.5629,0.5629,0.5628,0.5623,0.5623,0.5622,0.5624,0.5624,0.5624,0,0,0,0,0,0,0.5652,0.5648,0.5647,0.5646,0.5643,0.564,0.564,0.5638,0.5636,0.5636,0.5634,0.5633,0.563,0.5629,0.563,0.5625,0.5625,0.5625,0.5627,0.5626,0.5626,0.5627,0.5629,0,0,0,0,0,0.5652,0.5651,0.5647,0.5647,0.5645,0.5643,0.5641,0.564,0.5638,0.5637,0.5634,0.5632,0.5629,0.5628,0.5626,0.5623,0.5622,0.5622,0.5622,0.5622,0.5622,0.5619,0.5619,0.5622,0.5622,0.5622,0,0,0.5653,0.5651,0.565,0.5647,0.5645,0.5643,0.5642,0.564,0.5638,0.5636,0.5634,0.5632,0.5629,0.5626,0.5625,0.5625,0.5621,0.5622,0.5622,0.5622,0.5619,0.5619,0.5618,0.5622,0.5622,0.5622,0,0,0.5654,0.5653,0.5651,0.5649,0.5646,0.5644,0.5644,0.564,0.5639,0.5636,0.5634,0.5632,0.5628,0.5625,0.5624,0.5622,0.5621,0.5621,0.5621,0.5618,0.5618,0.5618,0.5616,0.5616,0.5621,0.5621,0.5621,0,0.5656,0.5653,0.5651,0.5649,0.5647,0.5644,0.5643,0.5641,0.5637,0.5635,0.5635,0.563,0.5627,0.5623,0.5623,0.5622,0.5621,0.5622,0.5619,0.5618,0.5618,0.5616,0.5616,0.5621,0.5621,0.5621,0.5621,0,0.5655,0.5653,0.5652,0.5648,0.5646,0.5644,0.5641,0.5639,0.5637,0.5635,0.5632,0.5629,0.5625,0.5624,0.5623,0.562,0.562,0.5619,0.5619,0.5618,0.5616,0.5616,0.5621,0.5621,0.5621,0.5621,0,0,0.5659,0.5652,0.5652,0.565,0.5645,0.5643,0.5641,0.5637,0.5635,0.5632,0.563,0.5626,0.5625,0.5623,0.5621,0.5619,0.5616,0.5618,0.5618,0.5617,0.5611,0.5611,0.5611,0.5615,0.5615,0.5615,0.5611,0,0.5659,0.5654,0.5651,0.5647,0.5644,0.5642,0.5639,0.5636,0.5633,0.563,0.5627,0.5624,0.5624,0.5622,0.562,0.5617,0.5615,0.5617,0.5612,0.5612,0.5612,0.561,0.561,0.5607,0.5611,0.5611,0.561,0,0.5658,0.5655,0.565,0.5645,0.5644,0.5642,0.5637,0.5635,0.5631,0.5629,0.5626,0.5624,0.562,0.562,0.5614,0.5616,0.5614,0.5612,0.5611,0.5611,0.5611,0.5608,0.5606,0.5605,0.561,0.561,0.561,0,0.566,0.5654,0.5651,0.5649,0.5643,0.5641,0.5639,0.5634,0.5632,0.5628,0.5626,0.5622,0.5619,0.5616,0.5612,0.5613,0.5607,0.5607,0.5604,0.5604,0.5603,0.5603,0.5599,0.5602,0.5602,0.5602,0.5602,0,0.566,0.5657,0.5651,0.5649,0.5646,0.5642,0.5638,0.5636,0.5632,0.5628,0.5626,0.5622,0.5618,0.5614,0.5612,0.5607,0.5606,0.5604,0.5603,0.5604,0.5604,0.5602,0.5602,0.5602,0.5602,0.5602,0.5602,0,0.5661,0.5658,0.5653,0.5647,0.5646,0.5643,0.5638,0.5636,0.5633,0.5628,0.5627,0.5622,0.5617,0.5613,0.5607,0.5605,0.56,0.5599,0.5601,0.5601,0.5598,0.5598,0.5593,0.5591,0.5596,0.5596,0.5596,0,0.5661,0.5659,0.5653,0.565,0.5647,0.5644,0.5641,0.5636,0.5634,0.5628,0.5625,0.562,0.5616,0.5608,0.5604,0.5599,0.5598,0.5596,0.5597,0.5597,0.5597,0.5597,0.5596,0.5596,0.5596,0.5596,0.5596,0,0.5661,0.5659,0.5655,0.565,0.5646,0.5642,0.5638,0.5636,0.5631,0.5628,0.5622,0.5619,0.5612,0.5607,0.5601,0.5598,0.5596,0.5595,0.5594,0.5595,0.5596,0.5594,0.56,0.5596,0.5596,0.5596,0.5596,0.5596,0.5662,0.5659,0.5654,0.5649,0.5645,0.5641,0.5637,0.5634,0.5629,0.5623,0.5621,0.5615,0.561,0.5602,0.5598,0.5593,0.5593,0.5592,0.5592,0.5591,0.5591,0.5597,0.5592,0.5592,0.5592,0.5592,0.5592,0,0.5661,0.5657,0.5652,0.5646,0.5642,0.564,0.5635,0.5632,0.5627,0.5622,0.5617,0.561,0.5605,0.56,0.5594,0.5591,0.5589,0.5589,0.5589,0.5588,0.5592,0.5593,0.559,0.559,0.559,0.559,0.559,0.559,0.566,0.5655,0.5652,0.5644,0.564,0.5635,0.5632,0.5627,0.5623,0.5616,0.5611,0.5607,0.5602,0.5595,0.559,0.5588,0.5586,0.5586,0.5584,0.5588,0.5588,0.5588,0.5589,0.5585,0.5585,0.558,0.558,0.558]}]]